Terminal Aerodrome Forecast
Issued by NWS

Home | Current Version | Previous Version | Text Only | Print | Product List | Glossary Off
Versions: 1 2 3 4 5 6 7 8 9 10 11 12 13 14 15 16 17 18

000
FTUS42 KMHX 201700
TAFISO
TAF
KISO 201720Z 2018/2118 09003KT P6SM VCSH BKN030 OVC040
     FM202000 11006KT P6SM VCSH BKN030
     FM210100 13005KT P6SM SCT030
     FM210800 09003KT 4SM BR OVC010
     FM211300 09005KT P6SM SCT030
      AMD LTD TO CLD VIS AND WIND=

USA.gov is the U.S. government's official web portal to all federal, state and local government web resources and services.